Simultaneous Nadir Overpasses (SNOs) Predictions

Prediction of SNOs between GOES-16 and NPP Satellite Orbit:

Table of predicted SNOs for the next 14.0 days since TLE Epoch: 12/23/2023
Index Date Time (GOES-16) GOES-16 Lat,Lon NPP Lat,Lon Distance(km) Time Diff (sec)
1 12/23/2023 18:17:11 0.02, -75.22 0.60, -72.69 288.18 80
2 12/25/2023 06:39:00 -0.02, -75.21 0.62, -77.96 313.17 80
3 12/26/2023 06:17:36 -0.01, -75.22 -0.41, -73.43 203.17 80
4 12/27/2023 18:39:34 0.01, -75.22 -0.75, -78.75 401.11 80
5 12/28/2023 18:23:30 0.00, -75.23 0.22, -74.21 115.80 80
6 12/30/2023 06:45:19 -0.01, -75.25 0.94, -79.49 483.95 80
7 12/31/2023 06:23:56 -0.00, -75.26 -0.10, -74.97 33.37 80
8 01/02/2024 18:27:10 0.01, -75.29 -0.07, -75.75 52.09 80
9 01/03/2024 18:11:05 0.00, -75.31 0.91, -71.22 465.99 80
10 01/05/2024 06:32:54 -0.00, -75.34 0.24, -76.50 132.02 80
